Satellite-Ground Cal/Val Site Overpasses Predictions

Prediction of Satellite NPP Overpassing Cal/Val Site: Antarctic Dome C

Ground Cal/Val Site Location: Latitude: -75.10, Longitude: 123.35; Satellite-Ground Site NADIR distance within 100 km.

Table of predicted overpasses for the next 14.0 days since TLE Epoch: 11/9/2018
Interval Starting Time Ending Time Minimum Distance Time Minimum Distance (km)
1 11/10/2018 15:08:04 11/10/2018 15:08:12 11/10/2018 15:08:08 95.41
2 11/11/2018 14:49:04 11/11/2018 14:49:33 11/11/2018 14:49:18 16.12
3 11/13/2018 07:31:53 11/13/2018 07:32:23 11/13/2018 07:32:08 2.93
4 11/16/2018 14:55:20 11/16/2018 14:55:49 11/16/2018 14:55:35 20.97
5 11/17/2018 14:36:39 11/17/2018 14:36:53 11/17/2018 14:36:46 86.12
6 11/18/2018 07:38:12 11/18/2018 07:38:39 11/18/2018 07:38:25 39.05
7 11/19/2018 07:19:25 11/19/2018 07:19:45 11/19/2018 07:19:35 70.84
8 11/21/2018 15:01:40 11/21/2018 15:02:04 11/21/2018 15:01:52 58.23
9 11/22/2018 14:42:50 11/22/2018 14:43:15 11/22/2018 14:43:03 50.96


NCC Satellite Cal/Val Overpasses Prediction Service
